TimePDT,TemperatureF,Dew PointF,Humidity,Sea Level PressureIn,VisibilityMPH,Wind Direction,Wind SpeedMPH,Gust SpeedMPH,PrecipitationIn,Events,Conditions,WindDirDegrees,DateUTC
12:15 AM,59.0,55.4,88,30.04,10.0,SE,10.4,-,N/A,,Partly Cloudy,140,2012-10-04 07:15:00
12:35 AM,59.0,55.4,88,30.04,10.0,SE,10.4,-,N/A,,Clear,140,2012-10-04 07:35:00
12:55 AM,59.0,55.4,88,30.04,10.0,SE,9.2,-,N/A,,Scattered Clouds,140,2012-10-04 07:55:00
1:15 AM,59.0,55.4,88,30.04,10.0,SSE,6.9,-,N/A,,Mostly Cloudy,150,2012-10-04 08:15:00
1:35 AM,57.2,53.6,88,30.04,10.0,SE,8.1,-,N/A,,Overcast,140,2012-10-04 08:35:00
1:55 AM,59.0,55.4,88,30.05,10.0,SE,9.2,-,N/A,,Overcast,140,2012-10-04 08:55:00
2:15 AM,57.2,53.6,88,30.05,10.0,SSE,9.2,-,N/A,,Overcast,150,2012-10-04 09:15:00
2:35 AM,57.2,53.6,88,30.05,10.0,SE,9.2,-,N/A,,Overcast,140,2012-10-04 09:35:00
2:55 AM,57.2,55.4,94,30.04,10.0,SE,10.4,-,N/A,,Overcast,130,2012-10-04 09:55:00
3:15 AM,57.2,55.4,94,30.04,10.0,SE,11.5,-,N/A,,Mostly Cloudy,140,2012-10-04 10:15:00
3:35 AM,57.2,55.4,94,30.04,10.0,SSE,11.5,-,N/A,,Overcast,150,2012-10-04 10:35:00
3:55 AM,57.2,55.4,94,30.04,10.0,SE,11.5,-,N/A,,Overcast,140,2012-10-04 10:55:00
4:15 AM,57.2,55.4,94,30.05,10.0,SSE,9.2,-,N/A,,Overcast,150,2012-10-04 11:15:00
4:35 AM,57.2,55.4,94,30.05,10.0,SE,10.4,-,N/A,,Overcast,140,2012-10-04 11:35:00
4:55 AM,57.2,55.4,94,30.05,10.0,SSE,8.1,-,N/A,,Overcast,160,2012-10-04 11:55:00
5:15 AM,57.2,53.6,88,30.06,10.0,SE,10.4,-,N/A,,Overcast,140,2012-10-04 12:15:00
5:35 AM,57.2,53.6,88,30.06,10.0,SE,9.2,-,N/A,,Overcast,140,2012-10-04 12:35:00
5:55 AM,57.2,53.6,88,30.06,10.0,SE,11.5,-,N/A,,Overcast,140,2012-10-04 12:55:00
6:15 AM,57.2,53.6,88,30.08,10.0,SSE,9.2,-,N/A,,Overcast,160,2012-10-04 13:15:00
6:35 AM,59.0,53.6,82,30.08,10.0,SSE,11.5,-,N/A,,Overcast,150,2012-10-04 13:35:00
6:55 AM,59.0,53.6,82,30.08,10.0,SE,9.2,-,N/A,,Overcast,140,2012-10-04 13:55:00
7:15 AM,57.2,53.6,88,30.09,9.0,SE,10.4,-,N/A,,Overcast,130,2012-10-04 14:15:00
7:55 AM,59.0,53.6,82,30.10,10.0,SSE,8.1,-,N/A,,Overcast,150,2012-10-04 14:55:00
8:15 AM,59.0,53.6,82,30.11,10.0,South,11.5,-,N/A,,Overcast,170,2012-10-04 15:15:00
8:35 AM,59.0,53.6,82,30.11,10.0,SSE,10.4,-,N/A,,Overcast,160,2012-10-04 15:35:00
8:55 AM,59.0,53.6,82,30.12,10.0,South,10.4,-,N/A,,Overcast,170,2012-10-04 15:55:00
9:15 AM,60.8,53.6,77,30.13,10.0,SSW,8.1,-,N/A,,Overcast,200,2012-10-04 16:15:00
9:35 AM,60.8,53.6,77,30.13,10.0,SSE,9.2,-,N/A,,Overcast,160,2012-10-04 16:35:00
9:55 AM,60.8,53.6,77,30.14,10.0,SSW,5.8,-,N/A,,Overcast,200,2012-10-04 16:55:00
10:15 AM,60.8,53.6,77,30.14,10.0,SSE,6.9,-,N/A,,Overcast,150,2012-10-04 17:15:00
10:35 AM,62.6,53.6,72,30.15,10.0,South,9.2,-,N/A,,Overcast,170,2012-10-04 17:35:00
10:55 AM,62.6,53.6,72,30.15,10.0,SSE,12.7,-,N/A,,Mostly Cloudy,160,2012-10-04 17:55:00
11:15 AM,62.6,53.6,72,30.15,10.0,South,12.7,-,N/A,,Scattered Clouds,190,2012-10-04 18:15:00
11:35 AM,64.4,53.6,68,30.15,10.0,South,10.4,-,N/A,,Clear,180,2012-10-04 18:35:00
11:55 AM,64.4,53.6,68,30.15,10.0,SSW,11.5,16.1,N/A,,Clear,210,2012-10-04 18:55:00
12:15 PM,64.4,53.6,68,30.15,10.0,SSW,11.5,17.3,N/A,,Clear,200,2012-10-04 19:15:00
12:35 PM,64.4,53.6,68,30.14,10.0,South,11.5,-,N/A,,Clear,190,2012-10-04 19:35:00
12:55 PM,66.2,53.6,64,30.13,10.0,South,13.8,17.3,N/A,,Clear,190,2012-10-04 19:55:00
1:15 PM,66.2,51.8,60,30.13,10.0,South,10.4,-,N/A,,Clear,190,2012-10-04 20:15:00
1:35 PM,68.0,51.8,56,30.12,10.0,South,8.1,-,N/A,,Clear,180,2012-10-04 20:35:00
1:55 PM,68.0,53.6,60,30.11,10.0,South,4.6,-,N/A,,Clear,190,2012-10-04 20:55:00
2:15 PM,69.8,53.6,56,30.11,10.0,SE,4.6,-,N/A,,Clear,140,2012-10-04 21:15:00
2:35 PM,69.8,53.6,56,30.10,10.0,SSW,6.9,-,N/A,,Clear,200,2012-10-04 21:35:00
2:55 PM,71.6,53.6,53,30.10,10.0,SSW,6.9,-,N/A,,Clear,210,2012-10-04 21:55:00
3:10 PM,71.6,53.6,53,30.09,10.0,South,8.1,-,N/A,,Clear,180,2012-10-04 22:10:00